Weather reports worldwide

Advertisment
Aboyne, United Kingdom (3080): temperature & dewpoint: 06.11.2019 05:00:00 - 12.11.2019 05:00:00 (GMT)Aboyne, United Kingdom (3080): temperature -20cm & temperature -100cm: 06.11.2019 05:00:00 - 12.11.2019 05:00:00 (GMT)Aboyne, United Kingdom (3080): wind speed: 06.11.2019 05:00:00 - 12.11.2019 05:00:00 (GMT)Aboyne, United Kingdom (3080): wind direction: 06.11.2019 05:00:00 - 12.11.2019 05:00:00 (GMT)Aboyne, United Kingdom (3080): reduced air pressure: 06.11.2019 05:00:00 - 12.11.2019 05:00:00 (GMT)Aboyne, United Kingdom (3080): visibility: 06.11.2019 05:00:00 - 12.11.2019 05:00:00 (GMT)Aboyne, United Kingdom (3080): precipitation: 06.11.2019 05:00:00 - 12.11.2019 05:00:00 (GMT)
Date & Time tt [°C] td [°C] tt -20cm [°C] tt -100cm [°C] ff [km/h] ff [kn] dd ppp [hPa] vv [km] rr [mm]
12.11.2019 05:00:00 5,7 5,0 - - 9 5 N 988,1 8 1,4
12.11.2019 04:00:00 3,9 3,5 - - 9 5 W 987,4 6 0,4
12.11.2019 03:00:00 3,1 2,3 - - 11 6 WNW 987,6 22 1,6
12.11.2019 02:00:00 3,5 2,0 - - 16 9 W 987,7 35 0,0
12.11.2019 01:00:00 2,8 1,9 - - 15 8 W 988,1 30 0,2
12.11.2019 00:00:00 1,9 1,3 - - 5 3 W 988,7 45 0,0
11.11.2019 23:00:00 1,3 1,1 - - 9 5 W 988,9 50 0,0
11.11.2019 22:00:00 0,9 0,4 - - 5 3 W 989,0 12 0,0
11.11.2019 21:00:00 1,2 0,7 - - 9 5 WNW 989,0 50 0,0
11.11.2019 20:00:00 1,8 1,5 - - 5 3 W 989,3 12 0,2
11.11.2019 19:00:00 2,2 1,3 - - 4 2 WNW 989,2 45 0,0
11.11.2019 18:00:00 2,9 1,6 - - 5 3 WNW 989,2 35 0,0
11.11.2019 17:00:00 3,3 1,6 - - 8 4 WNW 989,2 50 0,0
11.11.2019 16:00:00 3,6 1,9 - - 4 2 NW 989,2 45 0,0
11.11.2019 15:00:00 4,2 2,5 - - 8 4 W 988,9 50 0,0
11.11.2019 14:00:00 4,7 3,2 - - 9 5 W 988,9 35 0,0
11.11.2019 13:00:00 4,5 3,1 - - 8 4 WSW 989,2 45 0,0
11.11.2019 12:00:00 4,3 3,2 - - 5 3 WNW 989,1 40 0,0
11.11.2019 11:00:00 4,5 3,4 - - 4 2 NNW 989,3 16 0,0
11.11.2019 10:00:00 3,4 2,9 - - 4 2 ENE 989,7 22 0,0
11.11.2019 09:00:00 2,9 2,5 5,5 6,9 4 2 SE 990,0 21 0,0
11.11.2019 08:00:00 3,0 2,2 - - 8 4 ENE 990,4 30 0,0
11.11.2019 07:00:00 3,6 2,2 - - 13 7 SE 991,1 50 0,0
11.11.2019 06:00:00 3,3 1,9 - - 8 4 ESE 992,2 45 0,0
11.11.2019 05:00:00 3,4 1,9 - - 13 7 ESE 993,2 25 0,0
11.11.2019 04:00:00 3,0 2,1 - - 8 4 ENE 994,3 16 0,4
11.11.2019 03:00:00 2,4 1,9 - - 8 4 E 995,7 18 0,2
11.11.2019 02:00:00 2,2 1,6 - - 15 8 E 997,4 40 0,4
11.11.2019 01:00:00 1,5 1,1 - - 9 5 ESE 999,4 12 0,4
11.11.2019 00:00:00 1,6 1,0 - - 8 4 E 1001,4 10 0,6
10.11.2019 23:00:00 1,0 0,6 - - 9 5 ESE 1002,9 10 0,0
10.11.2019 22:00:00 0,5 0,2 - - 13 7 ESE 1004,8 21 0,0
10.11.2019 21:00:00 0,4 0,1 - - 5 3 ENE 1007,2 14 0,0
10.11.2019 20:00:00 0,0 -0,2 - - 4 2 ENE 1008,6 26 0,0
10.11.2019 19:00:00 -0,2 -0,5 - - 4 2 WNW 1009,7 20 0,0
10.11.2019 18:00:00 -0,4 -0,7 - - 2 1 SSE 1011,1 26 0,0
10.11.2019 17:00:00 -0,6 -1,0 - - 4 2 W 1012,2 29 0,0
10.11.2019 16:00:00 -0,7 -2,1 - - 2 1 W 1013,0 40 0,0
10.11.2019 15:00:00 2,2 -0,8 - - 4 2 SW 1014,1 45 0,0
10.11.2019 14:00:00 4,3 0,3 - - 8 4 WSW 1015,5 45 0,0
10.11.2019 13:00:00 3,1 0,4 - - 5 3 WNW 1016,3 50 0,2
10.11.2019 12:00:00 1,7 0,0 - - 8 4 W 1017,1 40 0,0
10.11.2019 11:00:00 -0,1 -1,0 - - 5 3 NW 1017,7 45 0,0
10.11.2019 10:00:00 0,2 -0,4 - - 8 4 WNW 1018,4 40 0,0
10.11.2019 09:00:00 -1,1 -1,3 5,9 7,2 5 3 NW 1018,6 30 0,0
10.11.2019 08:00:00 -2,5 -2,9 - - 8 4 WNW 1018,2 45 0,0
10.11.2019 07:00:00 -3,6 -4,0 - - 5 3 W 1017,8 45 0,0
10.11.2019 06:00:00 -4,5 -5,0 - - 5 3 W 1017,2 50 0,0
10.11.2019 05:00:00 -4,7 -5,4 - - 5 3 NW 1016,9 45 0,0
10.11.2019 04:00:00 -3,9 -4,5 - - 4 2 W 1016,4 45 0,0
10.11.2019 03:00:00 -3,2 -3,7 - - 8 4 W 1016,0 40 0,0
10.11.2019 02:00:00 -2,7 -3,4 - - 9 5 W 1015,6 40 0,0
10.11.2019 01:00:00 -2,2 -2,7 - - 8 4 WNW 1015,2 30 0,0
10.11.2019 00:00:00 -1,8 -2,2 - - 8 4 WNW 1014,8 40 0,0
09.11.2019 23:00:00 -0,8 -1,0 - - 5 3 NW 1014,2 35 0,0
09.11.2019 22:00:00 -1,7 -2,1 - - 9 5 WNW 1013,4 40 0,0
09.11.2019 21:00:00 -1,1 -1,3 - - 5 3 W 1013,1 19 0,0
09.11.2019 20:00:00 -0,7 -0,9 - - 5 3 W 1012,1 13 0,0
09.11.2019 19:00:00 -0,5 -0,7 - - 5 3 W 1011,8 14 0,0
09.11.2019 18:00:00 0,4 0,2 - - 8 4 WSW 1011,1 16 0,0
09.11.2019 17:00:00 0,7 0,5 - - 2 1 N 1010,3 20 0,0
09.11.2019 16:00:00 1,3 0,6 - - 2 1 W 1009,7 15 0,0
09.11.2019 15:00:00 2,1 1,5 - - 5 3 NW 1009,1 26 0,2
09.11.2019 14:00:00 2,1 1,5 - - 2 1 N 1008,8 35 1,0
09.11.2019 13:00:00 1,5 1,0 - - 2 1 NNE 1008,7 27 0,0
09.11.2019 12:00:00 1,1 0,9 - - 5 3 NNW 1008,7 30 0,0
09.11.2019 11:00:00 -0,4 -0,7 - - 2 1 WNW 1008,9 22 0,0
09.11.2019 10:00:00 -1,6 -2,0 - - 5 3 W 1009,2 35 0,0
09.11.2019 09:00:00 -2,4 -2,8 6,4 7,4 4 2 NW 1009,7 24 0,0
09.11.2019 08:00:00 -3,1 -3,7 - - 4 2 W 1009,7 26 0,0
09.11.2019 07:00:00 -2,6 -3,0 - - 11 6 W 1009,6 12 0,0
09.11.2019 06:00:00 -3,5 -4,0 - - 8 4 W 1010,0 45 0,0
09.11.2019 05:00:00 -4,6 -5,2 - - 5 3 NW 1010,2 50 0,0
09.11.2019 04:00:00 -4,6 -5,2 - - 5 3 NW 1010,6 45 0,0
09.11.2019 03:00:00 -4,7 -5,2 - - 8 4 NW 1011,2 35 0,0
09.11.2019 02:00:00 -4,6 -5,4 - - 2 1 NNW 1011,9 45 0,0
09.11.2019 01:00:00 -3,8 -4,5 - - 5 3 WNW 1013,2 35 0,0
09.11.2019 00:00:00 -3,7 -4,3 - - 8 4 WNW 1013,5 35 0,0
08.11.2019 23:00:00 -3,0 -3,4 - - 9 5 NW 1013,7 35 0,0
08.11.2019 22:00:00 -2,8 -3,3 - - 5 3 WNW 1014,2 40 0,0
08.11.2019 21:00:00 -2,3 -2,6 - - 5 3 WNW 1014,3 23 0,0
08.11.2019 20:00:00 -1,9 -2,2 - - 5 3 WNW 1014,4 22 0,0
08.11.2019 19:00:00 -1,3 -1,6 - - 5 3 WNW 1014,7 35 0,0
08.11.2019 18:00:00 -0,8 -1,2 - - 4 2 WNW 1014,8 35 0,0
08.11.2019 17:00:00 -0,5 -1,2 - - 4 2 W 1014,5 45 0,0
08.11.2019 16:00:00 2,5 -0,6 - - 4 2 W 1013,8 50 0,0
08.11.2019 15:00:00 5,5 1,1 - - 5 3 N 1013,4 30 0,0
08.11.2019 14:00:00 5,2 1,7 - - 9 5 N 1013,5 35 0,0
08.11.2019 13:00:00 5,5 2,1 - - 9 5 N 1013,5 40 0,0
08.11.2019 12:00:00 4,6 2,1 - - 11 6 NNW 1013,7 45 0,0
08.11.2019 11:00:00 3,4 1,9 - - 9 5 NW 1013,8 50 0,4
08.11.2019 10:00:00 2,1 1,0 - - 13 7 NNW 1013,7 45 0,0
08.11.2019 09:00:00 0,5 0,3 7,0 7,5 8 4 WNW 1013,5 40 0,0
08.11.2019 08:00:00 -0,5 -0,9 - - 9 5 NW 1013,0 40 0,0
08.11.2019 07:00:00 -1,9 -2,4 - - 8 4 NW 1012,4 28 0,0
08.11.2019 06:00:00 -0,7 -0,9 - - 5 3 WSW 1012,3 30 0,0
08.11.2019 05:00:00 -0,9 -1,1 - - 2 1 NW 1012,2 15 0,0
08.11.2019 04:00:00 -1,1 -1,6 - - 4 2 W 1011,7 50 0,0
08.11.2019 03:00:00 -0,9 -1,5 - - 5 3 W 1011,4 50 0,0
08.11.2019 02:00:00 0,9 0,3 - - 13 7 NW 1011,2 35 0,0
08.11.2019 01:00:00 -0,4 -1,0 - - 8 4 WNW 1010,8 45 0,0
08.11.2019 00:00:00 1,0 0,5 - - 9 5 W 1010,5 40 0,0
07.11.2019 23:00:00 -0,3 -0,7 - - 5 3 W 1010,0 26 0,0
07.11.2019 22:00:00 -0,5 -1,1 - - 5 3 NW 1009,8 30 0,0
07.11.2019 21:00:00 1,1 -0,1 - - 4 2 N 1009,1 35 0,0
07.11.2019 20:00:00 1,5 -0,1 - - 5 3 N 1008,6 45 0,0
07.11.2019 19:00:00 2,8 0,9 - - 8 4 NNE 1007,9 35 0,0
07.11.2019 18:00:00 1,7 0,1 - - 8 4 N 1007,2 40 0,0
07.11.2019 17:00:00 1,6 0,0 - - 4 2 WNW 1006,6 40 0,0
07.11.2019 16:00:00 3,8 0,5 - - 5 3 NNE 1005,5 50 0,0
07.11.2019 15:00:00 5,2 2,0 - - 8 4 NE 1004,7 50 0,0
07.11.2019 14:00:00 5,5 2,7 - - 8 4 ENE 1003,9 45 0,0
07.11.2019 13:00:00 5,6 3,0 - - 11 6 ENE 1003,3 50 0,0
07.11.2019 12:00:00 5,5 3,0 - - 16 9 ENE 1002,8 35 0,2
07.11.2019 11:00:00 5,1 3,6 - - 11 6 ENE 1002,4 45 0,6
07.11.2019 10:00:00 3,9 2,7 - - 16 9 NE 1001,8 10 3,0
07.11.2019 09:00:00 4,0 3,4 7,7 7,7 5 3 E 1000,9 8 2,0
07.11.2019 08:00:00 4,0 3,5 - - 11 6 ENE 1000,3 21 1,6
07.11.2019 07:00:00 3,3 3,0 - - 4 2 S 999,6 45 1,0
07.11.2019 06:00:00 3,2 3,0 - - 4 2 SW 999,2 45 0,2
07.11.2019 05:00:00 3,1 2,9 - - 4 2 SSE 999,1 45 1,2
07.11.2019 04:00:00 2,8 2,6 - - 4 2 NW 998,9 22 0,2
07.11.2019 03:00:00 2,9 2,7 - - 5 3 WNW 998,5 11 0,4
07.11.2019 02:00:00 3,0 2,7 - - 2 1 E 998,7 8 0,6
07.11.2019 01:00:00 2,9 2,6 - - 4 2 W 999,1 13 1,0
07.11.2019 00:00:00 2,9 2,6 - - 2 1 WSW 999,1 7 0,8
06.11.2019 23:00:00 2,9 2,6 - - 2 1 ENE 999,4 18 0,6
06.11.2019 22:00:00 2,9 2,5 - - 5 3 E 999,8 10 0,8
06.11.2019 21:00:00 2,8 2,4 - - 0 0 N 1000,1 9 0,2
06.11.2019 20:00:00 3,0 2,4 - - 8 4 E 1000,2 10 0,4
06.11.2019 19:00:00 3,1 2,7 - - 5 3 ENE 1000,4 17 0,2
06.11.2019 18:00:00 3,3 2,9 - - 4 2 ENE 1000,8 10 0,0
06.11.2019 17:00:00 3,4 2,9 - - 4 2 ENE 1001,1 21 0,0
06.11.2019 16:00:00 3,6 3,1 - - 5 3 E 1001,3 27 0,0
06.11.2019 15:00:00 3,8 2,7 - - 2 1 SE 1001,8 50 0,0
06.11.2019 14:00:00 3,3 2,6 - - 4 2 NNW 1002,5 14 2,2
06.11.2019 13:00:00 4,3 2,9 - - 2 1 WSW 1002,9 40 0,2
06.11.2019 12:00:00 4,2 3,1 - - 5 3 E 1003,4 19 0,0
06.11.2019 11:00:00 4,5 3,4 - - 4 2 W 1003,7 45 0,0
06.11.2019 10:00:00 3,8 2,6 - - 8 4 W 1004,3 45 0,0
06.11.2019 09:00:00 2,0 1,6 8,0 7,7 4 2 WNW 1004,9 45 0,0
06.11.2019 08:00:00 1,6 1,2 - - 5 3 NW 1005,2 40 0,0
06.11.2019 07:00:00 1,8 1,3 - - 8 4 NNW 1005,4 40 0,0
06.11.2019 06:00:00 1,8 1,4 - - 8 4 WNW 1005,7 45 0,0
06.11.2019 05:00:00 2,1 1,7 - - 4 2 WNW 1006,0 40 0,0

tt = temperature
td = dewpoint
tt -20cm = temperature -20cm
tt -100cm = temperature -100cm
ff = wind speed
dd = wind direction
ppp = reduced air pressure
vv = visibility
rr = precipitation

Next stations